Qianfan 05-07

operational
NORAD ID: 63165 Int'l Des: 2025-046 Owner: YUANX Country: CN Constellation: qianfan
LEOCIRCULARPOLAR

关于 Qianfan 05-07

正在加载描述...

实时位置

正在加载3D地球...

即将过境

高度历史

Altitude vs Time

uPlot chart will show altitude changes over time

两行轨道根数

1 63165U 25046G 25304.27722510 .00000062 00000-0 77124-4 0 9991
2 63165 88.9771 324.4949 0012906 247.7759 112.2024 13.50973865 41641
Epoch: Oct 31, 2025 • Age: 11 hours

当前状态

高度 1089.0 km
速度 7.31 km/s
星下点 62.05°N, 21.72°E
发射日期 Mar 11, 2025
运行时间 0.6 years
类型 internet

技术详情

分类 Payload
质量 267.00 kg
干质量 267.00 kg
总质量 267.00 kg
长度 0.30 m
直径 3.00 m
跨度 10.00 m
形状 Box+pan
制造商 GESIH
平台类型 Qianfan
阶段状态 In Orbit
所有者/国家 YUANX/CN

大型星座

Loading constellations...